cliquez pour ajouter le site Runraid à vos favoris  English version (google)  Retour à l'accueil Ecrire à l'auteur du site Runraid : Michel Jourdan


 Visitez La Boutique 


 Diagonale des Fous 

Ecrire au créateur du site : Michel Jourdan
Contact


2008-11-23 - Kalla Nescafé

Pour consulter le palmarès d'un coureur, un clic sur son nom !

Vous avez des remarques, corrections, ... sur ces résultats , un clic sur --> pour me transmettre toute information concernant les classements


Kalla Nescafé - 2008 : classement des 700 finishers
Place Nom Temps Cat. Club Sexe Clt/cat.
Place Nom Temps Cat. Club Sexe Clt/cat.
1 PERRAULT Gerry 01:26:17 V1H Rando Camelias M 961
2 BAGOUPATY JULIAN 01:30:05 V1H CAPOSS M 44
2 LACROIX Eric 01:30:05 V1M DENIV M 375
4 ESSOB PATRICK 01:32:56 SEM PPAC M 236
5 FONTANA ARNAUD 01:33:24 V1H ACSP M 265
6 MUSSARD Didier 01:35:07 SEM ACAJ M 908
7 GAIA Jean Louis 01:35:14 V1H - M 274
8 HOAREAU Jean Laurent 01:35:17 SEM DENIV M 343
9 POTHIN Frederic 01:35:40 NSH - M 997
10 BARRET BENJAMIN 01:37:46 SEM ACAJ M 53
11 MAILLOT YOLAND 01:38:06 SEM CAPOSS M 452
12 GUILLAUME BENOIT 01:38:17 SEM ACSP M 329
13 FELICITE Gilsey 01:38:43 SEM - M 245
14 GEOFFROY FRANCK 01:38:50 V1H DA M 63
15 MOUNY WILLY 01:38:53 SEM USPG M 500
16 TALIMBOLA BENOIT 01:39:09 V1H CAPOSS M 1063
17 CHAMBRY Thierry 01:39:35 V1H DENIV M 135
18 LAURICOURT TEDDY 01:40:29 NSH - M 398
19 DIJOUX J BERNARD 01:40:36 SEM AVAD M 214
20 ERCEAU CHRISTOPHE 01:40:45 V1H - M 1187
21 POUDROUX DANY 01:40:49 SEM ACB M 983
22 VAITILINGOM PHILIPPE 01:40:52 V1H CAPOSS M 1106
23 FERRERE EDDY 01:41:10 NSH - M 247
24 BUDEL FRED 01:41:50 NSH - M 108
25 CADET JACKSON 01:43:20 SEM Aigles Blancs M 112
26 TIMON GILLES MARC 01:43:26 NSH - M 1181
27 LAURET JULES 01:43:35 V1H - M 395
28 LEOCADIE RENE 01:43:40 NSH PPAC M 420
29 DALVAN ERIC 01:43:42 V1H - M 182
30 LAW HAM TIEN Yannish 01:44:11 SEM - M 400
31 GALAIS JEAN BERNARD 01:44:29 SEM Aigles Blancs M 276
32 MUGUEL PASCAL 01:44:41 SEM BNA M 903
33 MOUNY JEROME 01:44:43 SEM USPG M 499
34 FELICIEN DOMINIQUE 01:44:54 NSH - M 244
35 GUITON JEAN CLAUDE 01:45:34 V1H - M 328
36 HOAREAU YANNIS 01:45:39 NSH - M 349
37 VOS Jean Hugues 01:46:10 SEM DENIV M 1125
38 GALAIS DIDIER 01:46:17 NSH - M 275
39 MASSEAUX Dany 01:46:18 SEM DENIV M 473
40 SMITH GUILLAUME 01:46:51 V1H AIGLES BLANCS M 1055
41 THEMYR WILLY 01:47:00 NSH - M 1082
42 GALLISSIAZ LOUIS CLAUDE 01:47:11 V1H - M 278
43 JARD MARIUS 01:47:14 NSH - M 358
44 MURAT JACKY 01:47:16 V2H MURAT M 905
45 PAYET Jean Paul 01:47:22 SEM MURAT M 906
46 MICHEL HENRI PASCAL 01:47:23 V1H DENIV M 482
47 MOUGEY LUC 01:47:26 V1H DENIV M 496
48 PARIS J CHRISTIAN 01:47:28 NSH DENIV M 942
49 DIJOUX DAVID 01:47:30 NSH - M 211
50 ODON ANTOINE 01:47:32 SEM BNA M 928
51 ODON FERNANDO 01:47:33 SEM BNA M 929
52 VICTOIRE HENRICO 01:47:36 V1H DENIV M 1200
53 AROUMOUGOM STEPHANE 01:47:48 NSH - M 103
54 CLAIN JIMMY 01:48:00 SEM MURAT M 149
55 LAMBERT FABRICE 01:48:02 NSH - M 381
56 GRONDIN HUBERT 01:48:16 V2H ACB M 314
57 MARIE FRANCOISE FRED 01:48:33 V1H PPAC M 463
58 ALEFE ANACLET 01:48:35 V1H ACB M 21
59 BOYER Elysee 01:49:03 SEM - M 99
60 SERY Damien 01:49:05 ESH - M 1148
61 LALLEMAND JAMES 01:49:20 V1H - M 380
62 BRET PHILIPPE 01:49:40 NSH - M 102
63 TIMON AXEL 01:49:45 NEH - M 1088
64 NOURRY HENRY 01:49:58 N2H - M 927
65 ROBIN J LUC 01:50:13 V1H - M 1023
66 COISSIER ANDRE 01:50:32 N2H - M 164
67 ZEMIR DIDIER 01:50:39 ESH DENIV M 1128
68 ISSOP ALIX 01:50:43 V2H CAPP M 362
69 AIMART Johny 01:50:48 V1H DENIV M 14
70 GIRAUDET PATRICK 01:50:59 V1H DENIV M 303
71 GOURIET Jean Pierre 01:51:02 NSH - M 307
72 PAYET EMILE OLIVIER 01:51:06 SEM ACB M 952
73 CHOW SHI YEE JEAN PIERRE 01:51:28 V1H DENIV M 144
74 TARBY WILLIAM 01:51:32 SEM ACB M 1
75 FRAVAL CEDRIC 01:52:01 SEM DENIV M 251
76 MOILMA JEAN HUGUES 01:52:27 V1H - M 489
77 GRONDIN RENE CLAUDE 01:53:39 V1H AVALASS M 319
78 LAKDAR SALIN 01:53:44 NSH - M 379
79 ELISABETH EDDY 01:53:48 V1H - M 231
80 LACOUDRAY GEORGER 01:53:56 V1H PPAC M 374
81 CHANE SON DIDIER 01:54:03 NSH - M 137
82 CRESSENCE JOSIAN 01:54:20 V1H - M 171
83 GARSANY CHRISTOPHE 01:54:30 JH - M 281
84 HUET JEAN JACQUES 01:54:40 NSH - M 61
85 CADET JOSE 01:55:03 V1H ACL M 113
86 BUISSON DE LARICHAUDY MATTHIAS 01:55:26 SEM DENIV M 109
87 SAINT FIDELE MICHEL 01:55:34 NSH - M 1031
88 LEE SONG YIN Gino 01:55:44 SEM DENIV M 415
89 DIJOUX GERVAIS 01:55:47 V1H - M 213
90 SALVADOR LIONEL 01:55:50 V3H - M 1035
91 ESPOSITO FABIEN 01:55:55 NSH - M 235
92 MAILLOT YANNIS 01:56:27 NSH - M 453
93 LAMOLY GERARD 01:56:33 V1H - M 382
94 POTHIN STEPHANE 01:56:49 NSH CAPC M 980
95 VIDOT YANNICK 01:57:27 SEM BNA M 1117
96 CHARLETINE WILSON 01:57:30 SEM ACB M 140
97 AROUMOUGOM JEAN PHILIPPE 01:57:33 NSH - M 1182
98 LEPETIT DENIS 01:57:34 V1H - M 423
99 LAURET ALVARES 01:57:37 N2H - M 389
100 TAOCHY HELENE 01:57:44 V1F - F 1ere F 1065
101 GRONDIN J MARC 01:57:46 V1H DENIV M 318
102 GRONDIN PASCAL 01:58:06 V1H AVAD M 321
103 IRSAPOULLE VINCENT 01:58:12 NSH - M 141
104 SINAMAN JEAN NOEL 01:58:15 V3H - M 1051
105 FOLGOAT THIERRY 01:58:38 NSH - M 1184
106 GILBERT PATRICK 01:58:41 V2H TCSD M 299
107 CORSET JEAN DENIS 01:58:43 SEM AJA Combuston M 159
108 FONTAINE JIMMY 01:58:48 NSH - M 259
109 LORAINE SULLY 01:58:52 V1H - M 436
110 GRONDIN MATHIEU 01:58:54 NEH - M 320
111 PAJANIANDY JEAN RENE 01:59:09 V2H AVAD M 315
112 SOUBEYRAND FRANCIS 01:59:17 V1H - M 1057
113 VIDOT JEAN BERYL 01:59:26 NSH - M 1116
114 PICARD Jean NOEL 01:59:51 NSH - M 965
115 VALENTIN RENALDO 01:59:53 NSH GTOI M 1108
116 GALTIER THIERRY 01:59:54 NSH - M 6
117 MOUNIAMA STEPHANE 01:59:56 NSH - M 498
118 COISSIER PASCAL 01:59:57 NSH - M 167
119 MAILLOT NOEL 02:00:15 NSH - M 1159
120 TURPIN Celiane 02:00:27 V2F Aigles Blancs F 2eme F 1102
121 MAILLOT JEAN YVES 02:00:45 NSH - M 1157
122 BRUNIQUET LUDOVIC 02:00:51 NEH - M 1265
123 COMBARIEU Maud 02:00:56 SEF CA Saint Louis F 3eme F 198
124 ALDON FABRICE 02:00:58 V1H ACSP M 19
125 LAW YAM MICHEL 02:01:00 V2H ACSP M 403
126 DESPRAIRIES JOSEPH ALBERT 02:01:09 NEH - M 202
127 CAYAMBO BERNARD 02:01:15 V1H - M 128
128 RAMET PASCAL 02:01:21 V1H - M 992
129 LARAVINE JEAN PATRICK 02:01:23 NSH CA BrasPanon M 386
130 DUCHEMAN ERIC 02:01:32 NSH - M 224
131 BERFROI WILLY 02:01:42 V1H DENIV M 74
132 ECLAPIER DOMINIQUE 02:01:46 V2H USPG M 227
133 FERRERE GEORGES 02:02:19 NSH - M 248
134 GERE Jean Michel 02:02:21 V1H - M 298
135 ROLAND ALIX 02:02:38 V1H - M 1024
136 BERGER NICOLAS 02:02:41 SEM DENIV M 1134
137 TOUSSAINT WILLY 02:02:43 NSH - M 1098
138 FANCHIN VIVIANE 02:02:45 V1F DENIV F 4eme Feminine 241
139 CHANE SEE CHU OLIVIER 02:02:57 SEM - M 136
140 BRENNUS LUDO 02:03:07 V1H - M 101
141 RASSABY FRANCO 02:03:14 NSH - M 995
142 THOMAS CHRISTIAN 02:03:21 V1H - M 1083
143 ROBERT ERIC 02:03:23 V1H - M 1011
144 BERTILLE HILAIRE 02:03:28 V1H - M 78
145 CUVELIER ERIC 02:03:40 V1H BNA M 175
146 DELORME VINCENT 02:03:41 NSH - M 199
147 PICARD HENRY CLAUDE 02:03:46 V1H - M 964
148 COMMINS NOEL 02:03:48 NSH - M 155
149 SAUTRON CHARLES ERIC 02:03:50 SEM RCSD M 1041
150 ADOLPHE J PATRICK 02:04:00 NSH - M 7
151 KOYTCHA MOUNIR 02:04:04 NSH - M 372
152 COUTAYE JACKSON 02:04:06 NSH - M 168
153 MARIE MARTHE BERNARD 02:04:11 V1H ACSP M 467
154 LACROIX FREDERICK 02:04:17 V1H - M 376
155 OLLIVIER LAMARQUE Jean FRANCOIS 02:04:22 V2H DENIV M 192
156 BABOU FREDERIC 02:04:28 V1H - M 1131
157 POTHIN YOLAND 02:04:33 N2H - M 982
158 LAURE THEOPHILE 02:04:43 NSH - M 388
159 ECLAPIER JEAN CLAUDE 02:05:05 V1H USPG M 228
160 DALAPA JEAN RENE 02:05:08 V1H - M 176
161 PAYET STEPHANE 02:05:14 NEH - M 1166
162 LAURET Jean SULLY 02:05:16 NSH - M 394
163 BOURLY PATRICK 02:05:22 NSH - M 93
164 TROTTIN ERIC 02:05:28 V1H DENIV M 1101
165 MODELY SAMUEL 02:05:32 NSH - M 488
166 LAURET ANTONIN 02:05:36 V1H MAR M 390
167 LOVINSKI JOAN 02:05:38 NSH - M 433
168 FERROL DAVID 02:06:09 NSH - M 162
169 DALLEAU JEAN LUC 02:06:12 N2H - M 180
170 EDMOND JOSE 02:06:23 V1H - M 230
171 CAROFF PHILIPPE 02:06:35 V1H DENIV M 119
172 MONBRUN PATRICE 02:06:36 NSH - M 491
173 JEAN BAPTISTE PATRICK 02:06:39 N2H - M 1151
174 MERMERA FRED 02:06:44 V1H AIGLES BLANCS M 1161
175 CLAIN JEAN LUC 02:06:45 V2H ACC St LEU M 148
176 MANGHIN DAVID 02:07:01 NSH - M 1071
177 VAILLANT EMERIC 02:07:05 NEH - M 1105
178 ALBES JEAN LUC 02:07:17 NSH - M 18
179 FERRIER STEEVE 02:07:32 NSH - M 1143
180 HOAREAU J JACQUES 02:07:36 V1H CASS M 342
181 THEVENIN SULLY 02:07:41 V1H - M 1079
182 GUIDE ALIX 02:07:46 V1H - M 326
183 CRESSENCE RENE 02:07:48 V1H - M 1193
184 HOAREAU DOMINIQUE 02:07:51 V1H ACB M 339
185 DAMOUR RODOLPH 02:07:55 SEM USPG M 184
186 MARTIN CYRIL 02:07:57 V2H AVAD M 469
187 JAVARY SYLVAIN 02:07:59 V1H - M 360
188 ESPERANCE FABRICE 02:08:05 V1H - M 234
189 THOMAS THIERRY 02:08:06 SEM BNA M 1087
190 JAM STEPHANE 02:08:19 V1H - M 357
191 JEANJEAN FREDERIC 02:08:21 V1H - M 363
192 ATTE JEAN DANY 02:08:26 NSH - M 1130
193 PUY Marcelis 02:08:35 V2H - M 986
194 GENCE STEPHANE 02:08:37 SEM - M 293
195 FONTAINE BENOIT 02:08:39 V1H CAPC M 256
196 THOMAS Jean Michel 02:08:55 V1H - M 1085
197 CONDAPANAIKEN WILLY 02:09:00 NSH - M 156
198 GOURREAU ANTOINE 02:09:03 V1H - M 308
199 MARIE FRANCOISE JEROME 02:09:09 NSH - M 68
200 CERVEAU RAPHAEL 02:09:22 SEM AJAC M 1180
201 BORNOT DENIS 02:09:28 V3H CAPC M 89
202 BERNOT JEAN DENIS 02:09:44 V1H - M 76
203 SINAZIE MODELY TEDDY 02:09:48 SEM AJA Combuston M 1052
204 HOAREAU WILLY 02:09:57 V1H - M 348
205 BARBIN ANDRE MICHEL 02:10:04 N2H - M 51
206 COUTIEN NICOLAS 02:10:13 SEM ACL M 169
207 VILRUS SULLY 02:10:18 V1H MAR M 1120
208 AURE YVON 02:10:29 V2H ACSP M 41
209 ROBERT ROGER 02:10:41 NSH - M 1019
210 ARAGO PATRICK 02:10:43 V1H - M 32
211 CHAMBRY Fabien 02:10:45 SEM DENIV M 134
212 FONTAINE SULLY 02:11:03 V1H PPAC M 264
213 HOAREAU CEDRIC 02:11:22 ESH DENIV M 338
214 FERRIER J ALBERT 02:11:26 NSH - M 249
215 PUTOIS ARNAUD 02:11:29 V1H - M 985
216 SERY MIREILLE 02:11:31 V2F CASL F 5eme Feminine 253
217 DARY NOEL 02:11:35 NSH - M 187
218 FUMONDE RICO 02:11:37 NSH - M 269
219 BILAIN VITAL 02:11:39 NSH - M 405
220 NOEL PHILIPPE 02:11:42 NSH DENIV M 925
221 IGOUF JEAN FRANCOIS 02:11:44 NSH - M 1147
222 DIJOUX FREDERIC 02:11:46 NSH - M 212
223 PAUSE RUBENS 02:11:48 V2H RC St-Denis M 946
224 LAO KAN JEAN NOEL 02:11:51 NSH - M 401
225 PETCHY JOHAN 02:11:54 NSH - M 1074
226 MOREL JEAN PATRICK 02:11:55 V1H - M 1270
227 LAFABLE STEPHANE 02:11:59 NSH - M 378
228 VOLTREA ELIAN 02:12:20 V1H - M 1124
229 DORLA JEAN ALEX 02:12:22 NSH - M 220
230 LEBLE FREDERIC 02:12:25 SEM ACSP M 408
231 FUMONDE JOHNNY 02:12:27 V1H - M 1145
232 LAURET FREDERIC 02:12:30 NSH MAR M 392
233 AMIEL AGNES 02:12:34 SEF CAPC F 25
234 PAYET JEAN MARC 02:12:36 V1H - M 955
235 DE CUBBER PATRICK 02:12:46 V1H - M 327
236 ALEF RICHARD 02:12:49 SEM CAPOSS M 20
237 HAMM ERIC 02:13:00 SEM DENIV M 332
238 LAURET JEAN 02:13:24 V1H BNA M 393
239 LAYEMAR LEONARD 02:13:40 N2H MAR M 404
240 TREVOUX LAURENT 02:13:55 NSH - M 1100
241 FAYS SYLVAIN 02:14:11 NSH - M 243
242 ELLAMA NICOLAS 02:14:14 SEM AVAD M 232
243 MORALES THIERRY 02:14:20 V1H - M 493
244 TATEL J BERNARD 02:14:23 NSH - M 1068
245 HOAREAU MIRAY 02:14:27 N2H - M 345
246 COUPOUCHETTY ANDRE 02:14:32 N2H - M 1192
247 LARAVINE JEAN DANIEL 02:14:34 V1H - M 80
248 COISSER Gladys 02:14:39 V1F Aigles Blancs F 153
249 MAILLET FREDERIC 02:14:43 V1H - M 449
250 CHAUVET BRUNO 02:14:45 V1H - M 133
251 GLEYZE DAVID 02:14:47 NSH - M 304
252 MANAPIN JEAN DANIEL 02:14:49 V1H ACL M 459
253 ROBERT JUDE 02:14:55 V1H MAR M 1015
254 FONTAINE PATRICK (57) 02:14:57 N2H - M 254
255 PAYET FABRICE ARMAND 02:15:00 V1H - M 953
256 SOUPOU FABRICE 02:15:15 NSH - M 1060
257 MAREUX Eugenie 02:15:47 SEF CAPC F 461
258 KAISSE JEROME 02:15:56 NSH - M 367
259 VAR THIERRY 02:15:59 NSH - M 1112
260 NATIVEL JOHNNY 02:16:10 NSH - M 916
261 LAURET VINCENT 02:16:14 V1H Aigles Blancs M 397
262 GEORGET JEAN YVES 02:16:22 N2H - M 294
263 ABRISKA ERIC 02:16:29 NSH - M 1172
264 CASSOU GUILLAUME 02:16:32 NSH - M 124
265 TECHER FABIEN 02:16:40 V1H - M 1069
266 ROBERT MARTINI 02:17:21 NSH - M 1017
267 ALPHAND RAYMOND 02:17:35 V3H - M 22
268 SAMARIA PASCAL 02:17:38 NSH - M 1036
269 GRIVEL ARNAUD 02:17:43 V1H - M 311
270 LEPERLIER ERIC 02:18:00 NSH - M 421
271 HOAREAU JOHNNY 02:18:02 V1H - M 344
272 RICHARD NICOL 02:18:10 V1H - M 1006
273 ECLAPIER CAMILLE 02:18:18 V2H USPG M 226
274 GERARD PATRICK 02:18:19 V1H - M 297
275 BATAILLEJean Paul 02:18:21 V1H - M 58
276 PADRE JACKY 02:18:24 V1H Aigles Blancs M 933
277 CAVANE MICHEL 02:18:26 V3H - M 116
278 TOURVILLE CHRISTIAN 02:18:29 N2H - M 1096
279 GAUVIN SABINE 02:18:57 SEF - F 286
280 LEBON Jean MARC 02:19:05 V2H - M 409
281 MICHELOT STEPHANE 02:19:15 NSH - M 483
282 BERFEUIL Jean Eric 02:19:22 NSH - M 333
283 BORDIER CEDRIC 02:19:25 NSH - M 87
284 ETHEVE ERIC 02:19:27 NSH - M 237
285 BEGUE EDDY 02:19:39 NSH - M 64
286 FONTAINE MARTIAL 02:19:41 NSH - M 261
287 ANNETTE FREDERIC 02:19:43 NSH - M 31
288 SOMMICA J ALAIN 02:19:46 V1H - M 1056
289 GRONDIN PAUL EMILE 02:19:49 V1H - M 323
290 BRENNUS GUY 02:19:52 V1H - M 100
291 LEPINAY CLAUDE 02:19:56 V1H ACSP M 425
292 YVIN SEBASTIEN 02:19:58 NSH - M 1252
293 THOMAS GILLES 02:20:15 NSH - M 1084
294 TURPIN LUCETTE 02:20:38 SEF Aigles Blancs F 1104
295 HOARAU Jean Pierre 02:20:41 V1H - M 9
296 LECUYER FRANCIS 02:20:45 NSH - M 412
297 MOUTAMA JEAN MARIE 02:20:47 V1H - M 901
298 BEAULIEU JEANNICK 02:20:49 NSH MAR M 60
299 LIBELLE MEDERIC 02:20:55 V2H AVAD M 435
300 POTHIN EDDY 02:21:00 NSH - M 975
301 LAUDE KLERITA 02:21:05 SEF Aigles Blancs F 387
302 MELOBOSIS GILBERT 02:21:09 V1H - M 1189
303 FONTAINE ALIX 02:21:12 N2H - M 255
304 DELGROSSI CLAUDE 02:21:17 V1H - M 186
305 BERNARD J NICOLE 02:21:22 NSH - M 75
306 DALLEAU CHARLES HENRY 02:21:24 NSH - M 178
307 MAMERI PHILIPPE 02:21:27 N2H - M 458
308 DUBOIS MATHIEU 02:21:28 NSH - M 152
309 BEGUE J FRANCOIS 02:21:32 V1H - M 67
310 ITEMA YOLAIN 02:21:38 N2H - M 355
311 LEPERLIER HENRI CLAUDE 02:21:41 V1H - M 422
312 MADILHAC ARNAUD 02:22:06 NSH - M 446
313 PEYMON THIERRY 02:22:10 V1H - M 962
314 MAINFROI AXEL 02:22:18 V1H - M 454
315 JUIGNUER VINCENT 02:22:21 NSH - M 366
316 SAUTRON J RENE 02:22:23 NSH - M 1043
317 DAMOUR SEBASTIEN 02:22:26 NSH - M 185
318 MORBE NICOLAS 02:22:31 V1H DENIV M 494
319 LAURET DAVID 02:22:48 SEM ACSP M 391
320 GOBALRAJA J YVES 02:23:05 V1H - M 305
321 L'HABITANT CHRISTIAN 02:23:19 N2H - M 1154
322 PAVIEL PATRICK 02:23:26 NSH - M 1165
323 PAVIEL WILLY 02:23:29 NSH - M 949
324 DOBARIA YANNICK 02:23:31 NSH - M 218
325 PONTALBA DIMITRI 02:23:33 JH - M 972
326 LUZ Jean Christophe 02:23:37 NSH - M 444
327 MAREUX GERALD 02:23:40 NSH - M 462
328 PASTOR MICHEL 02:23:45 NSH - M 944
329 ARISTOLE NICOL 02:24:00 NSH - M 35
330 HOAREAU MYRIELLE 02:24:02 V1F - F 432
331 TAOCHY JIMMY 02:24:06 NSH - M 1066
332 AFER RAYMOND 02:24:15 NSH - M 12
333 HOAREAU STEPHANE 02:24:18 SEM DENIV M 347
334 MERLIN YANIS 02:24:21 NSH - M 479
335 SICARD DANIEL 02:24:24 N2H - M 963
336 BIGUENA SYLVAIN 02:24:36 N2H - M 81
337 LAURET STEPHANE 02:24:39 NSH MAR M 396
338 INDIANA HENRI 02:24:44 V1H - M 353
339 CHAPELIN LISIANE 02:25:05 SEF AAJ Murat F 138
340 MATHIEU DAMIEN 02:25:07 NSH - M 475
341 ANDRIEN GILLES 02:25:10 V1H - M 1251
342 HENRY GAUTHIER 02:25:21 JUH CAPOSS M 334
343 FURIA J NOEL 02:25:28 NSH - M 271
344 FONTAINE JULIEN 02:25:31 NSH - M 260
345 MARTIN ERIC 02:25:35 V1H - M 470
346 MORVA ALAIN 02:25:37 V2H ACL M 495
347 NG THUNE JOSEPH 02:26:13 V1H - M 920
348 DEPINGRAY KARL 02:26:17 V1H - M 201
349 LEDOU ALDO 02:26:21 NSH - M 413
350 GRIMOIRE Jean Michel 02:26:34 V1H USPG M 310
351 COUKAN PATRICK 02:26:40 N2H - M 163
352 POTHIN RICHARD 02:26:44 N2H - M 978
353 SINAMA MOUTAMA FABRICE 02:26:48 SEM ASAC M 1050
354 RANGANAYAGUY GEORGES 02:26:51 V1H AGAC M 993
355 GELLY CHRISTOPHE 02:26:55 V1H DENIV M 1188
356 NOEL RODOLPHE 02:26:58 NSH - M 926
357 MARIE MARTHE REJANE 02:27:00 SEF - F 111
358 MEDAR SERGE 02:27:04 N2H - M 477
359 GRONDIN JANICK 02:27:09 SEF AVALASSE F 316
360 HSK ROGER 02:27:12 V1H GTOI M 350
361 ROBERT RENE 02:27:23 V1H - M 1018
362 LEE SOW YIN JOEL 02:27:43 V1H - M 414
363 PAYET J MAX 02:27:49 NSH - M 957
364 ROBERT J YVES 02:27:53 V1H - M 1016
365 HOAREAU FREDDY 02:27:56 V1H - M 341
366 PARAME WILLY 02:28:14 NSH - M 246
367 CAPIT CHRISTIAN 02:28:18 N2H - M 118
368 RIBOTTE GHISLENE 02:28:23 SEF DENIV F 1002
369 CLARICE FREDERIC 02:28:26 NSH - M 150
370 DALAPA LOIC 02:28:44 JH - M 177
371 BEGUE PATRICK 02:28:53 NSH - M 10
372 ROMILY STEPHANE 02:29:00 NSH - M 1025
373 KHARITONOFF ALEXANDRE 02:29:02 NSH - M 369
374 MAILLOT PATRICK 02:29:04 NSH - M 1191
375 MINIAMA Jean SEBASTIEN 02:29:21 NSH - M 947
376 GALENT JEAN CLAUDE 02:29:26 V1H - M 1257
377 CHARLETINE MICHEL 02:29:36 V1H ASM M 139
378 BEGUE FRANCIS 02:29:39 V1H - M 65
379 FRAYSSINET EVE 02:30:08 SEF CAPOSS F 268
380 ANCELIN ARNAUD 02:30:11 NSH - M 28
381 DAMOUR ERICK 02:30:15 V1H RCSD M 183
382 THIBURCE J MARIE 02:30:22 V1H - M 1081
383 GASTRIN PATRICE 02:30:35 NSH - M 283
384 DELCOURT ERIC 02:30:38 NSH - M 197
385 ROSSIGNOL LAURENT 02:31:00 NSH - M 1026
386 LAW SON Jean Claude 02:31:03 N2H - M 402
387 CARRON Jean ERIC 02:31:16 V1H - M 120
388 POTHIN SERGE 02:31:21 V1H - M 979
389 DERAND LILIANE 02:31:27 V1F CAPOSS F 205
390 CALENDRIN LUDWIG 02:31:58 JH - M 114
391 FURIA J PHILIPPE 02:32:14 NSH - M 272
392 BUISSON JIMMY 02:32:17 NSH - M 110
393 LELERRE SEBASTIEN 02:32:22 NSH - M 1153
394 FURIA J CLAUDE 02:32:24 V1H - M 270
395 FRADELIN JEAN RUDY 02:32:28 NSH - M 266
396 DE LA HOGUE BILLY 02:32:30 NSH - M 204
397 GRONDIN GIOVANNI 02:32:42 NEH - M 313
398 GREGOIRE Jean Paul 02:33:10 V1H - M 1178
399 FRANCIA EMMANUELLE 02:33:14 SEF - F 267
400 LEGROS J Francois 02:33:17 SEM DENIV M 417
401 GUICHARD JACKY 02:33:21 V1H ACB M 325
402 CLAIN JACQUES 02:33:35 V1H ACC St LEU M 147
403 ROBERT Jean Pierre 02:33:39 V1H - M 223
404 LORIN JOEL 02:33:41 V1H - M 1198
405 ARIAPOUTRY DAVID 02:33:52 SEM CASSL M 34
406 TECHER SAMUEL 02:33:57 NSH - M 1070
407 AVRIAMA Nicolas 02:34:00 N2H - M 43
408 GALLIOT MICHEL 02:34:03 V1H - M 277
409 SAMELOR NICOL 02:34:06 V1H - M 1037
410 BAPTISTE JOACHIN 02:34:14 NSH - M 59
411 LEPINAY MICKAEL 02:34:24 SEM DENIV M 426
412 PAPAMACOUPAMA J JACQUES 02:34:29 NSH MAR M 939
413 BAILLE WILLY 02:34:36 V1H - M 45
414 PORRET THIERRY 02:34:40 V1H - M 1174
415 SALAH JEAN STELIO 02:34:43 V1H - M 1033
416 MUSSARD NOEL 02:34:48 V1H - M 909
417 DE LANUX Brigitte 02:34:54 V1F - F 195
418 CAPARIN JEAN YVES 02:34:59 N2H MAR M 117
419 SOUBOU EDDY 02:35:13 NSH - M 1058
420 PATEL KHALIL 02:35:28 NSH - M 937
421 CLAIN J YVES 02:35:31 V2H ACC St LEU M 146
422 VOTREA JOCELYNE 02:35:33 V1F Aigles Blancs F 1126
423 MARIE JEANNE Jean Michel 02:35:38 NEH - M 464
424 MUSSARD PATRICK 02:35:43 V1H - M 910
425 BIGOT DANIEL 02:35:59 N2H - M 1137
426 GRONDIN ARSENE 02:36:26 V1H MAR M 312
427 PONCET IVAN 02:36:28 V1H - M 971
428 BOYER JEAN ROLAND 02:36:32 V1H - M 1255
429 AUDER FRANCK 02:36:35 V1H - M 1185
430 VALIN CLOTAIRE 02:36:39 V1H - M 132
431 MAHE ERIC 02:36:49 V1H - M 448
432 CERVEAU SANDRA 02:37:03 SEF - F 131
433 HERMET ALFRED 02:37:08 N2H - M 335
434 TESSIER CHRISTIAN 02:37:12 N2H - M 1072
435 DIJOUX CLAUDETTE 02:37:15 V1F - F 210
436 ABODDI GILBERT 02:37:19 V1H - M 2
437 MARIE LOUISE ANSELME 02:37:25 V1H - M 465
438 MINATCHY ERIC 02:37:28 V1H - M 485
439 PELTIER ELIETTE 02:37:32 V1F - F 958
440 NATIVEL NOELLE 02:37:34 V2F DENIV F 918
441 LEBRUN LAURENT 02:37:38 V1H - M 919
442 GAZE J CLAUDE 02:37:42 V1H - M 290
443 LAHIRE MAXIMIN 02:37:46 N2H - M 1175
444 MANGARON PATRICK 02:37:50 NSH - M 1179
445 ANNE DENISE J BERNARD 02:37:53 V1H - M 30
446 POTHIN ELISABETH 02:37:57 SEF ACSP F 976
447 TREPORT HERVE 02:38:01 N2H - M 1099
448 LEBIHAN MICHEL 02:38:04 V1H BNA M 407
449 POTHIN ULYSSE 02:38:07 SEM ACSP M 981
450 SAULQUIN DOMINIQUE 02:38:13 NSH - M 1040
451 DECHAZOURNES BRIGITTE 02:38:17 V2F AVAD F 193
452 BAPTISTE JEAN MARIE 02:38:28 V1H - M 48
453 PAUSE DAISY 02:38:32 SEF CA Possession F 945
454 MUSSARD ROSAIRE 02:38:37 V1H - M 911
455 BAPTISTE SULLY 02:38:41 V1H - M 50
456 VALCARES Jean Michel 02:38:42 V1H - M 1007
457 DEBOIVILLIERS GUY 02:39:01 N2H - M 191
458 LEOCADIE Jean Louis 02:39:04 V1H PPAC M 419
459 BARDEL FRANCOIS 02:39:08 NSH - M 52
460 PAPAYA DAVID 02:39:15 NSH - M 940
461 BENARD JOHNNY 02:39:23 V1H - M 70
462 RZABKOWSKI ALEXANDRE 02:39:33 NSH - M 1028
463 OULIA LAURENT 02:39:37 NSH - M 1261
464 GILLAIN NICOLAS 02:39:40 JH - M 300
465 MACASARD 02:39:50 SEM DENIV M 107
466 BOULANGER HUGUETTE 02:39:54 SEF MURAT F 92
467 RAFOUGILET ULRICH 02:40:08 NSH - M 1190
468 ADOLPHE SIMON 02:40:14 V3H CAPOSS M 8
469 PAUSE Jean Michel 02:40:22 SEM ASPN M 1164
470 FAIF THIERRY 02:40:30 NSH - M 240
471 HAISMAN CLAUDE 02:40:51 V2H DENIV M 331
472 GABALDON YANNICK 02:40:54 NSH - M 273
473 ANANDANADARADJA PAJJANE 02:40:57 V1H RCSD M 27
474 MAILLOT TEDDY 02:41:03 NSH - M 1160
475 CERVEAU FREDERIC 02:41:21 NSH - M 1177
476 CORBIN J MARIE 02:41:34 V3H - M 158
477 NATIVEL JULIEN 02:41:44 NSH - M 917
478 AVRIAMA Reine May 02:41:49 V2F - F 42
479 NARSAMA ALAIN 02:42:02 V1H - M 915
480 VAR LAURENT 02:42:11 NSH - M 1110
481 GAUDIN ROMAIN 02:42:14 NSH - M 284
482 MINATCHY JOHNNY 02:42:47 V1H - M 5
483 ROBERT ROSELINE 02:43:00 V1F - F 1020
484 DORO JEAN MARIE 02:43:04 N2H - M 221
485 GRONDIN PATRICE 02:43:07 V1H - M 322
486 MAHABO JEAN PATRICK 02:43:10 N2H - M 447
487 FIORET DANIEL 02:43:12 NSH - M 250
488 MYNOLAS VIRGINIE 02:43:14 SEF - F 912
489 FATOL JEAN 02:43:17 V1H - M 242
490 BUTCHLE AGATHE 02:43:20 V1F CAPP F 1139
491 DUFRESNES FABRICE 02:43:26 SEM ENT-NORT M 217
492 SOURIRA HERVE 02:43:29 NSH - M 377
493 BOUTEILLER JOELLE 02:43:31 V1F - F 94
494 TEVENIN MARIE THERESE 02:43:42 SEF DENIV F 1075
495 MAILLOT SIMON 02:44:12 V3H - M 451
496 ABRAL JEAN YVES 02:44:15 V1H - M 3
497 CAZETTE CHRISTOPHE 02:44:18 NSH - M 129
498 ROBERT LUDOVIC 02:44:21 NEH - M 1168
499 BEGUE HORTENSE 02:44:40 SEF - F 66
500 DORSAL Jean PATRICE 02:44:43 NSH - M 222
501 BASQUAISE SOPHIE 02:45:03 SEF - F 56
502 DELATRE NADINE 02:45:14 V1F MURAT F 196
503 DEMAND NOELLE 02:45:17 SEF CAPOSS F 1267
504 ARISTOLE DOMINIQUE 02:45:41 V1H - M 1129
505 ROBERTJean Pierre 02:45:53 V1H ACL M 1021
506 DEVAUD LAURENT 02:45:57 NSH - M 208
507 LUMG TUNG COLETTE 02:46:01 V2F AiglesS BlancsS F 442
508 BOYER ERIC 02:46:04 V1H CAPOSS M 1199
509 REBOUL VIRGINIE 02:46:05 SEF MURAT F 1268
510 PALAMA DANIEL 02:46:16 SEM BNA M 934
511 LEFEVRE CHRISTELLE 02:47:49 SEF DENIV F 416
512 RIVIERE FABIEN 02:47:54 JH - M 1008
513 GRUCHET M KELLY 02:48:03 SEF - F 324
514 GINET BRUNO 02:48:05 NSH - M 302
515 VALCARES Jean Michel 02:48:46 V1H - M 1007
516 AJAGUIN WILSON 02:48:56 NSH - M 1176
517 PAYET ALEXANDRE 02:48:59 NSH - M 950
518 DUBARD ALFRED 02:49:15 V1H - M 225
519 BASQUAISE SONIA 02:49:19 SEF - F 55
520 ERNEST J TEDDY 02:49:21 NSH - M 173
521 GAZE RITAIRE 02:49:24 V1H - M 292
522 LESNE CHRISTIANE 02:49:27 SEF DENIV F 429
523 THOUVENET PIERRE 02:49:30 V1H - M 354
524 GASPAL HENRIO 02:49:33 NSH - M 282
525 BIOLAY J MAURICE 02:49:36 NSH - M 84
526 FONTAINE NICOLAS 02:49:42 JH - M 262
527 THOMAS JOCELYN 02:49:47 NSH MAR M 1086
528 DESVERNE LORRAINE 02:49:50 V1F COSPI F 207
529 ROBERT JEAN LUC 02:49:54 V1H - M 1013
530 MAILLOT JOSEPH 02:49:56 N2H GTOI M 450
531 LANGEVILLIER LOLITA 02:49:59 SEF - F 384
532 SINOPE JEAN RENE 02:50:05 V1H - M 1054
533 BREYSSE RAYMOND 02:50:08 N2H - M 104
534 CARRON PASCAL 02:50:12 V1H - M 121
535 PARIS M FrancoisE 02:50:15 V1F CA St-Louis F 943
536 LEPERRE ERIC 02:50:17 V1H - M 428
537 CALIMOUTOU MARYSE 02:50:20 SEF - F 115
538 LOMBARD CECILE 02:50:50 SEF - F 1263
539 RECROSIO GILLES 02:50:54 NSH - M 1262
540 JARROSSAY GREGORY 02:51:05 NSH - M 285
541 GOURLAOUEN FREDERIC 02:51:12 V1H - M 306
542 DALLEAU MICKAEL 02:51:51 NSH - M 181
543 BONHOMME CORINNE 02:51:53 SEF - F 86
544 GARNIER PIERRE PHILIPPE 02:52:04 V1H - M 190
545 THAZAR HUGUES 02:52:25 N2H - M 1173
546 LOVAIL NATHALIE 02:52:29 V1F - F 441
547 THELESTE JEAN MARCO 02:52:37 N2H - M 1078
548 BROCHARD KATIA 02:52:52 V1F DENIV F 105
549 GAUVIN SANDRINE 02:53:14 SEF - F 287
550 AFER FABRICE 1 02:53:22 NSH - M 11
551 SAIB OLIVIER 02:53:31 NSH - M 1030
552 COLLIN HERVE 02:53:37 NSH - M 154
553 GENTIHOMME 02:53:39 V1H DENIV M 79
554 TERTRE MICHEL 02:54:12 V2H CAPOSS M 1169
555 MOMPRE BERNARD 02:54:25 N2H - M 490
556 TECHER MIREILLE 02:54:27 V2F - F 1077
557 RATANE YANNICK 02:55:14 NSH - M 996
558 BOMART ANNYSE 02:55:23 V1F DENIV F 85
559 MINARRO PHILIPPE 02:55:40 V1H - M 1269
560 GEORGET JOCELYNE 02:55:44 V1F - F 295
561 HERRERIAS CAROLINE 02:55:57 SEF - F 336
562 DALLEAU LAURENT 02:56:06 NSH - M 179
563 MOUTOUSSAMY J PIERRE 02:56:11 V1H - M 902
564 SAMINADIN MARIE FRANCE 02:56:16 SEF - F 1039
565 SAMINADIN JIMMY 02:56:19 V1H - M 1038
566 SIMONNET ALEXANDRE 02:56:22 NSH - M 1049
567 DEPREUX KARINE 02:56:39 SEF ENT-NORT F 203
568 VIRASAMY PASCAL 02:56:42 V1H - M 1122
569 JULENON JULIEN 02:56:47 NSH - M 1152
570 MATT KARINE 02:56:50 SEF DENIV F 476
571 MALADIRA EMILE 02:56:53 NSH - M 455
572 PERIAYAGOM M ALIETTE 02:56:59 V1F - F 960
573 ARHIMAN ROSELINE 02:57:11 SEF - F 33
574 VERBAR CHRISTELLE 02:57:15 SEF - F 1114
575 DELAHOGUE KARINE 02:57:21 SEF DOS DANE F 194
576 MOUSSEAU CHRISTOPHE 02:57:24 V1H - M 24
577 HUBERT STEPHANE 02:57:29 V3H - M 351
578 AURE JEAN MARIE 02:57:41 NSH - M 40
579 LUMG TUNG J RENE 02:57:44 V3H - M 443
580 BENARD MICHEL 02:57:49 V1H GTOI M 71
581 LAOURDE SYLVIE 02:57:52 V1F - F 1171
582 LAOURDE PHILIPPE 02:57:56 N2H - M 385
583 FONTAINE PATRICK (55) 02:58:10 N2H GTOI M 263
584 BALMAN SANDRA 02:58:22 SEF - F 46
585 MOUNIAMA SABRINA 02:58:47 V1F RCSD F 497
586 BOYER ANTHONY 02:58:51 NSH - M 1254
587 GRANGER THIERRY 02:58:54 V1H - M 309
588 CHOPINET Marie Joelle 02:59:21 V1F - F 142
589 YVIN JEAN YVES 02:59:31 N2H - M 1253
590 GUNEPIN DAVID 02:59:36 NSH - M 330
591 CORVEST YANNICK 02:59:40 V1H - M 160
592 REBOUL GUYTO 02:59:51 N2H - M 998
593 TOURVILLE ALIETTE 02:59:56 V1F - F 1094
594 RAJAONARISON YASMINA 03:00:02 SEF - F 988
595 DAUVERYET MICHEL 03:00:03 V1H - M 188
596 BARTHELOT NADIA 03:00:06 SEF - F 54
597 IMIHA DOMINIQUE 03:00:09 V1H - M 352
598 DEGUIGNE PASCAL 03:00:42 V1H - M 1140
599 TURPIN JANNICK 03:01:07 V1H - M 1103
600 DESVAUX PASCAL 03:01:18 NSH - M 206
601 BALUTEAU LAURENT 03:01:20 V2H RCSD M 47
602 VERBARD MICHEL 03:01:26 V1H - M 1115
603 BRUAND STEPHANE 03:01:33 V1H - M 106
604 BOUCHER PHILIPPE 03:01:38 V1H - M 91
605 VALGRESY GEOFFROY 03:01:53 JH - M 1109
606 CLOTAGATILDE RITO 03:01:57 V4H ASM M 151
607 STAUDT HENRI 03:02:37 NSH GTOI M 1062
608 MARIE LOUISE JOSE 03:02:59 V1H - M 258
609 FORGEARD FREDERIC 03:03:04 NSH - M 1264
610 POLLUX FREDERIC 03:03:15 NSH - M 969
611 GUILLAUME CHRISTINE 03:03:28 V1F - F 1259
612 ECORMIER VIVIANE 03:03:38 V1F - F 229
613 VIDOT EDDY 03:04:41 V1H - M 1170
614 RUET DENIS 03:04:46 V2H DENIV M 1027
615 GARDEL LOIC 03:04:56 NSH - M 279
616 VINCENT PAUL 03:05:01 N2H - M 1121
617 AMIREN JEAN RENE 03:05:09 V1H - M 123
618 DIGUARDO PATRICK 03:05:18 NSH - M 209
619 DIJOUX JEAN DANIEL 03:05:24 NSH - M 215
620 TIVERNE GILBERTE 03:05:29 V1F - F 1091
621 MANGARON CARINE 03:05:37 SEF - F 460
622 PAJIANI JEAN MARIE 03:05:39 V2H AVAD M 938
623 RETOLIA CHRISTINE 03:05:43 SEF - F 1001
624 LANGEVILLIER BERNARD 03:05:47 NSH - M 383
625 NOEL ELISE 03:05:50 V1F - F 924
626 OLLIVIER LAMARQUE Jean FRANCOIS 03:06:10 V2H DENIV M 930
627 LYNAM MARIE 03:06:13 V2F - F 1155
628 SOULIE PATRICK 03:06:20 V1H - M 1059
629 RIVIERE PATRICK 03:06:33 V1H - M 1009
630 LAVIEL THEO 03:06:35 NSH - M 399
631 TOINETTE PHILIPPE 03:07:03 V1H - M 1092
632 GAZE LUCILE 03:07:07 V3F RCSD F 291
633 COSTE MARJORIE 03:07:10 SEF - F 161
634 AMIEL ANNIE 03:07:17 V2F CAPC F 26
635 SAINT LYS ALAIN 03:07:19 NSH - M 1260
636 ZADIRE ARTHUR 03:07:24 V1H - M 1127
637 VIGIE CLAUDE 03:07:28 NSH - M 1118
638 ROBERT JOHNNY 03:07:39 V1H - M 1014
639 CINDOR KARINE 03:07:45 SEF - F 1256
640 DENAGE JEAN FRANCOIS 03:08:05 V1H - M 200
641 FONTAINE FRANCIS 03:08:41 N2H MAR M 257
642 BENARD ALIX 03:08:55 N2H - M 69
643 JAVELOT CHRISTIANE 03:09:41 V2F - F 361
644 ASTOURME BORIS 03:09:48 NSH - M 39
645 ELHAJ AICHA 03:09:51 V1F - F 1141
646 FONTAINE GISLAINE 03:10:13 SEF MURAT F 97
647 ARLANDA AUDREY 03:10:16 SEF - F 36
648 MIGNEAUX PATRICK 03:10:19 NSH - M 484
649 GARGOVITH KARINE 03:10:49 SEF - F 280
650 COISSER MICHELINE 03:11:45 V1F - F 166
651 CONTAU NICAISE 03:12:04 V2H Aigles Blancs M 157
652 CHOUCAIR YOUSSEF 03:13:14 ESH ACSP M 143
653 GILLAIN THIERRY 03:14:22 V1H - M 301
654 PAVIEL ANIEL 03:14:34 V1H - M 948
655 CASTRO JEAN PATRICE 03:14:38 V1H - M 125
656 SAUTRON IRIS 03:15:59 V3F - F 1042
657 ROBIN CHANTAL NATHALIE 03:16:04 V1F - F 1022
658 RIQUEBOURG M GABRIELA 03:16:38 V1F - F 1194
659 NOEL DIMITRI 03:16:44 JH - M 923
660 GERARD NATHALIE 03:16:50 SEF - F 296
661 MONGIN CHARLES 03:16:51 NSH - M 492
662 PONCET BRIGITTE 03:16:55 V1F - F 970
663 ANDRIANA LOLITA 03:17:07 SEF - F 29
664 SADON MARGUERITE 03:17:10 SEF - F 1029
665 RICHARD LAURENCE 03:17:35 V1F - F 1005
666 BOUCHER ARMELLE 03:18:46 V1F - F 90
667 ABRATES HUBERT 03:18:48 V1H - M 4
668 DURBANT MIREILLE 03:19:19 V1F - F 72
669 LOUISO SUZIE 03:19:34 V3F - F 440
670 BOUTIANA M JOCELYNE 03:20:03 V2F - F 95
671 DOLPHUS JOEL 03:20:09 V1H - M 219
672 RICHARD ERIC 03:21:26 V1H - M 1003
673 VAR LUCAS 03:22:20 N2H - M 1111
674 TANGAPRIGAMIN CHRISTIAN 03:24:18 V1H - M 1064
675 LESSORT DOMINIQUE 03:25:58 SEF - F 431
676 BERTOLIER VALERIE 03:27:08 SEF DENIV F 77
677 POUGAVANON GILBERT 03:29:44 V3H - M 122
678 GOURLAOUEN JOCELYNE 03:30:11 SEF - F 1183
679 LESSORT STEPHEN 03:31:20 V4H ASM M 430
680 AROUMOUGOM MARIE CLAUDE 03:36:30 V2F - F 37
681 AJAGUIN JOSEPH HERVE 03:37:30 N2H - M 15
682 AMADI REINE CLAUDE 03:39:04 V2F - F 23
683 BERAL SULLY 03:40:10 V1H - M 73
684 BALMAN KARL 03:40:27 V1H - M 1132
685 MAILLOT STEPHANIE 03:45:41 SEF - F 1156
686 GRANULANT MIRELLA 03:46:17 SEF - F 1150
687 BATAILLE MARIE CORINNE 03:47:43 V2F - F 57
688 LEFLOCH ISABELLE 03:51:15 V1F - F 1196
689 THAZAR YOLAND 03:51:20 V1H - M 1076
690 ELISE GEORGETTE 03:55:06 V1F - F 1197
691 RAVENNES RUTH 03:55:56 SEF - F 427
692 URINAT NADINE 03:59:49 V1F - F 1258
693 VIVIER JOCELYNE 04:00:05 V1F - F 1123
694 RAMAHAZOFARITRA CHRISTOPHE 04:06:51 V1H - M 989
695 VEE GILBERT 04:09:18 NSH - M 1113
696 ASA JEAN PHILIPPE 04:19:00 NSH - M 38
697 MACAGNANGA DOMINIQUE 04:36:32 V1H - M 445
698 BEAUTE ASTRIDE 04:47:57 V1F - F 62
699 TORINIERE ROGER 04:49:01 NSH - M 1093
700 LEMASSON INDIRA 04:53:53 SEF - F 1195


ReferencementCe site est listé dans la catégorie Sport : Sports extrêmes Dictionnaire
| Accueil | La Réunion  Vue du ciel | Météo | Cyclones | Volcan | Cirques de Mafate , Cilaos , Salazie | Photos Randonnées | Randonnées Réunion: Randos Espiègle , Courses montagne | Diagonale des Fous |  Marathon des Sables | Voyages Les stats du site | Fonds écran | Plan du site | Blog de runraid | Galerie photos Sport Réunion |